Regional Weather Roundup
Issued by NWS

Home | Current Version | Previous Version | Graphics & Text | Print | Product List | Glossary On
Versions: 1 2 3 4 5 6 7 8 9 10 11 12 13 14 15 16 17 18 19 20 21 22 23 24 25 26 27 28 29 30 31 32 33 34 35 36 37 38 39 40 41 42 43 44 45 46 47 48 49 50
000
ASUS43 KOAX 241602
RWRNE

WEATHER ROUNDUP FOR NEBRASKA
NATIONAL WEATHER SERVICE OMAHA NE
1100 AM CDT SAT SEP 24 2016

NOTES: SATELLITE DATA IS BEING USED TO AUGMENT CLOUD COVER ABOVE
       12000 FEET.
       "FAIR" INDICATES FEW OR NO CLOUDS BELOW 12,000 FEET WITH NO
       SIGNIFICANT WEATHER AND/OR OBSTRUCTIONS TO VISIBILITY.

  * THESE STATIONS DO NOT REPORT WEATHER SUCH AS RAIN...SNOW OR FOG.

NEZ001>004-019>022-054>056-241700-
NEBRASKA PANHANDLE

CITY           SKY/WX    TMP DP  RH WIND       PRES   REMARKS
SCOTTSBLUFF    SUNNY     57  41  55 W6        29.98R
ALLIANCE       SUNNY     58  42  55 W13       29.96R
CHADRON        SUNNY     59  43  55 SW16      29.91R
KIMBALL        SUNNY     59  40  48 SW13      30.01R
SIDNEY         SUNNY     57  42  57 W8        30.02R
$$

NEZ057>060-069>072-079>082-241700-
SOUTHWEST NEBRASKA

CITY           SKY/WX    TMP DP  RH WIND       PRES   REMARKS
NORTH PLATTE   MOSUNNY   61  47  59 W8        29.97R
IMPERIAL       SUNNY     61  41  47 NW6       29.99S
LEXINGTON      MOSUNNY   60  49  66 NW8       29.95R
MCCOOK         SUNNY     62  47  57 NW8       29.96S
OGALLALA       SUNNY     65  42  43 NW10      29.98S
$$

NEZ005>010-023>029-035>040-094-241700-
NORTH CENTRAL NEBRASKA

CITY           SKY/WX    TMP DP  RH WIND       PRES   REMARKS
VALENTINE      PTSUNNY   61  44  53 SW14      29.91R
AINSWORTH      CLOUDY    64  48  56 CALM      29.90S
BROKEN BOW     CLOUDY    62  50  64 W8        29.92R
O`NEILL        PTSUNNY   73  66  78 S12G17    29.88S
ORD            PTSUNNY   68  59  73 W7        29.89R
THEDFORD       CLOUDY    60  48  64 W7        29.93F
$$

NEZ041-046>049-061>064-073>077-083>087-241700-
SOUTH CENTRAL NEBRASKA

CITY           SKY/WX    TMP DP  RH WIND       PRES   REMARKS
GRAND ISLAND   CLOUDY    70  68  93 S10       29.91S
AURORA         LGT RAIN  72  70  95 S12       29.91F
HASTINGS       LGT RAIN  69  67  93 S9        29.94R FOG
HEBRON         PTSUNNY   78  68  71 S15G23    29.93R
HOLDREGE       PTSUNNY   63  52  68 W8        29.94R
KEARNEY *      CLOUDY    64  54  68 W12       29.92R
YORK           CLOUDY    75  68  78 S13G18    29.92S
$$

NEZ011>018-030>034-042>045-241700-
NORTHEAST NEBRASKA

CITY           SKY/WX    TMP DP  RH WIND       PRES   REMARKS
NORFOLK        CLOUDY    75  68  78 SE18      29.91R
ALBION         CLOUDY    71  67  88 S14       29.91R
BLAIR          CLOUDY    80  68  66 S13G22    29.96R
FREMONT        CLOUDY    79  68  67 S15G21    29.94S
TEKAMAH        CLOUDY    82  68  62 SE12      29.94F
WAYNE          CLOUDY    72  69  90 S15       29.91F
$$

NEZ050>053-065>068-078-088>093-241700-
SOUTHEAST NEBRASKA

CITY           SKY/WX    TMP DP  RH WIND       PRES   REMARKS
LINCOLN        PTSUNNY   78  69  73 S22       29.94R
OMAHA EPPLEY   PTSUNNY   81  69  67 S15       29.95F
BEATRICE       CLOUDY    75  73  91 S10       29.96R
FALLS CITY     CLOUDY    84  71  65 S15G24    29.97F
NEBRASKA CITY  PTSUNNY   81  61  50 S14G21    29.97S
PLATTSMOUTH    PTSUNNY   81  65  59 SE13G21   29.96S
$$

NEZ044-045-051>053-067-241700-
OMAHA AREA

CITY           SKY/WX    TMP DP  RH WIND       PRES   REMARKS
OMAHA EPPLEY   PTSUNNY   81  69  67 S15       29.95F
BLAIR          CLOUDY    80  68  66 S13G22    29.96R
FREMONT        CLOUDY    79  68  67 S15G21    29.94S
MILLARD        CLOUDY    81  70  69 SE9       29.95R
OFFUTT AFB     MOSUNNY   80  70  70 SE15      29.94F
PLATTSMOUTH    PTSUNNY   81  65  59 SE13G21   29.96S
WAHOO          FAIR      79  67  67 S15       29.94S
$$




USA.gov is the U.S. government's official web portal to all federal, state and local government web resources and services.